Temperature
22 22 21 21 20 20 20 19 19 19 19 19 19 19 19 19 19 19 19 18 18 18 18 18 18 18 18 19 19 19 19 18 18 18 18 18 18 18 18 17 17 18 17
22 22 21 21 20 20 20 19 19 19 19 19 19 19 19 19 19 19 18 18 18 18 18 18 18 18 18 18 18 18 18 18 18 18 18 18 18 18 17 17 17 18 17
22 22 21 21 20 20 20 19 19 19 19 19 19 19 19 19 19 18 18 18 18 18 18 18 18 18 18 18 18 18 18 18 18 18 18 18 18 18 17 17 17 18 17
22 22 21 21 20 20 20 19 19 19 19 19 19 19 19 19 19 18 18 18 18 18 18 18 18 18 18 18 18 18 18 18 18 17 17 17 18 18 17 17 17 17 17
21 21 21 21 20 20 20 19 19 19 19 19 19 19 19 19 19 18 18 18 18 18 18 18 18 18 18 18 18 18 18 18 17 17 17 18 18 18 18 17 17 17 17
21 21 21 21 20 20 19 19 19 19 19 19 19 19 19 19 19 19 18 18 18 18 18 18 18 18 18 18 18 18 18 18 18 17 18 18 18 18 17 17 17 17 17
21 21 21 21 20 20 19 19 19 19 19 19 19 19 19 19 19 19 18 18 18 18 18 18 18 18 18 18 18 18 18 18 18 18 18 18 18 18 17 17 17 17 17
21 21 21 20 20 20 19 19 19 19 19 19 19 19 19 19 19 19 19 18 18 18 18 18 18 18 18 18 18 18 18 18 18 18 18 18 18 18 17 17 17 17 17
20 20 21 20 20 20 19 19 19 19 19 19 19 19 19 19 19 19 19 19 19 18 18 18 18 18 18 19 19 19 19 19 18 18 18 18 18 18 18 17 17 17 17
20 20 20 20 20 19 19 19 19 19 19 19 19 19 19 19 19 19 19 19 19 19 19 18 18 18 18 19 19 19 19 19 18 18 18 18 18 18 18 18 17 17 17
20 20 19 19 19 19 19 19 19 19 19 19 19 19 19 18 18 18 18 18 19 19 19 18 19 18 18 18 19 19 19 18 18 18 18 18 18 18 18 18 17 17 17
20 20 19 19 19 19 18 19 19 19 19 18 18 19 18 18 18 18 18 18 18 18 18 18 18 18 18 18 18 19 19 18 18 18 18 18 18 18 18 18 18 17 17
20 20 19 19 19 19 19 19 18 18 18 18 18 18 18 18 18 18 18 18 18 18 18 18 18 18 18 17 18 18 18 18 18 18 18 18 18 18 18 18 18 17 17
20 20 19 19 19 19 19 19 19 18 18 18 18 18 18 18 18 18 18 18 18 18 18 18 18 18 18 18 18 18 18 18 18 18 18 18 18 18 18 18 18 17 17
20 19 19 19 19 19 19 19 19 18 18 18 18 18 18 18 17 17 18 18 17 17 17 17 17 18 18 18 18 18 18 18 18 17 17 18 18 18 18 18 18 17 17
19 19 19 19 19 19 19 19 18 18 18 18 18 18 17 17 17 17 17 17 17 17 17 17 17 17 18 18 18 18 18 18 18 17 17 17 17 17 18 18 18 17 17
19 19 19 19 19 19 19 18 18 18 18 18 18 17 17 17 17 17 17 17 17 17 17 17 17 17 17 17 17 17 18 18 17 17 17 17 17 17 17 17 17 17 17
19 19 19 18 18 18 18 18 18 18 18 18 17 17 17 17 17 17 17 17 17 17 17 17 17 17 17 17 17 17 17 17 17 17 17 17 17 17 17 17 17 17 17
19 18 18 18 18 18 18 18 18 18 17 17 17 17 17 17 17 17 17 17 17 17 17 17 17 17 17 17 17 17 17 17 17 17 17 17 17 17 17 17 17 17 17
18 18 18 18 18 18 18 18 18 17 17 17 17 17 17 17 17 17 17 17 17 17 17 16 16 16 16 17 17 17 17 17 17 17 17 17 17 17 17 17 16 17 16
18 18 18 18 18 18 18 18 17 17 17 17 16 16 16 16 16 16 16 16 16 16 16 16 16 16 16 16 17 17 17 17 17 17 17 17 17 17 17 16 16 16 16
18 18 18 18 18 18 18 18 17 17 17 17 16 16 16 16 16 16 16 16 16 16 16 16 16 16 16 16 16 17 17 17 17 17 17 17 17 17 16 16 16 16 16
17 17 17 17 17 17 17 17 17 17 17 17 17 16 16 16 16 16 16 16 16 16 16 16 15 16 16 16 16 16 16 16 17 17 17 17 17 16 16 16 16 16 16
17 17 17 17 17 17 17 17 17 17 17 17 16 16 16 16 16 16 15 15 16 15 15 15 15 15 15 16 16 16 16 16 16 16 17 16 16 16 16 16 16 15 15
17 17 17 17 17 17 17 17 17 17 17 17 16 16 16 16 15 15 15 15 15 15 15 15 15 15 15 15 15 16 16 16 16 16 16 16 16 16 16 16 15 15 15
18 17 17 17 17 17 17 17 17 17 17 17 16 16 16 16 15 15 15 15 15 15 15 15 15 15 15 15 15 15 15 15 15 16 16 16 16 16 16 16 15 15 15
Wind_Speed
20 20 21 19 18 18 17 17 16 16 16 16 16 16 16 16 16 16 15 15 15 15 14 14 14 14 14 14 14 15 15 15 15 16 17 16 16 15 14 16 18 17 17
23 22 22 20 19 18 17 16 16 16 15 15 15 15 15 15 15 15 15 15 15 14 15 14 14 14 14 14 13 13 12 12 13 15 17 16 16 15 14 14 17 16 16
23 22 21 20 19 18 17 17 16 16 15 15 15 14 14 14 14 14 14 14 14 14 14 14 14 14 14 13 12 11 9 9 10 12 14 15 15 16 18 18 18 17 16
23 21 21 21 19 18 17 17 17 16 15 15 14 14 13 13 13 13 14 14 14 14 14 14 14 14 13 12 10 8 6 6 6 6 8 13 14 16 17 17 16 16 15
21 21 22 22 20 19 18 17 17 16 15 15 14 14 13 13 12 13 13 13 13 13 13 14 13 13 12 10 8 5 4 3 1 4 13 16 15 15 15 15 15 15 14
21 22 22 22 20 19 18 18 17 16 15 15 14 13 13 12 12 12 12 13 12 12 13 13 12 11 11 9 6 4 4 5 5 7 15 17 14 14 14 14 14 14 14
21 21 22 21 20 19 18 17 17 16 15 14 14 13 12 12 12 12 12 12 12 12 12 12 11 10 9 7 5 4 6 8 3 11 16 16 14 14 13 13 13 13 13
20 21 21 21 20 19 18 17 16 15 15 14 13 13 12 11 11 11 11 11 11 11 10 10 9 8 7 6 4 5 7 9 4 13 17 16 15 14 13 12 12 12 12
19 20 18 19 19 19 18 17 16 15 14 13 12 12 12 11 11 11 11 10 10 9 9 8 7 6 5 3 2 5 8 10 5 10 16 15 15 14 13 12 11 11 11
19 18 17 17 17 17 16 16 16 15 14 13 12 11 11 11 11 11 11 10 10 9 8 7 6 4 3 2 2 5 8 10 3 11 14 15 16 14 12 11 10 10 10
15 15 15 15 14 15 16 16 15 14 13 12 11 11 10 10 10 10 11 11 10 8 7 5 4 3 3 5 5 6 7 4 4 9 12 18 17 14 12 11 10 10 10
14 14 13 13 12 13 13 14 13 12 12 11 10 10 9 7 8 10 13 11 9 8 7 5 4 4 6 5 7 8 6 2 4 8 12 19 17 14 12 10 10 9 9
13 12 12 10 8 9 9 10 9 9 10 9 10 8 5 4 7 10 10 9 8 8 6 6 5 4 2 1 1 3 3 4 3 9 14 16 15 13 12 11 10 10 9
12 12 12 10 6 5 8 6 6 7 6 6 9 7 5 2 3 5 4 6 6 5 4 4 1 0 2 3 3 3 3 3 4 9 12 14 14 13 12 11 10 10 10
10 11 12 11 8 6 5 4 6 5 5 7 8 6 6 3 2 3 2 2 3 5 4 2 1 1 1 2 3 3 4 4 3 5 10 14 13 12 11 10 10 11 11
12 11 10 10 8 7 6 3 4 5 5 7 7 7 6 6 4 3 2 1 2 4 3 2 2 1 0 1 1 2 3 4 3 3 6 10 12 12 12 11 11 11 12
11 12 10 9 9 8 8 6 5 5 7 6 7 7 5 6 5 3 3 2 2 5 5 3 2 1 1 1 1 2 2 1 2 2 2 5 8 12 13 12 12 12 12
11 11 11 11 10 8 7 5 4 5 6 6 8 8 6 5 4 3 3 2 3 3 4 3 2 1 0 0 1 2 1 1 2 3 3 4 5 6 11 13 13 13 13
11 11 10 10 11 9 8 5 5 4 5 6 8 8 7 6 4 3 3 3 1 1 2 2 3 1 0 1 3 2 2 2 1 3 2 3 4 5 7 12 15 14 13
11 9 9 10 10 9 7 5 5 4 3 5 6 6 6 5 5 3 4 3 1 2 3 2 2 1 1 1 4 1 2 2 2 1 2 3 5 5 5 6 10 12 14
11 10 9 9 9 8 6 6 6 5 4 5 5 7 7 6 5 3 4 2 1 3 3 1 1 2 1 0 2 2 3 4 4 3 2 1 1 1 2 4 5 5 8
10 10 9 9 9 8 6 5 5 6 4 5 5 6 7 6 5 5 3 2 3 3 2 1 0 1 1 1 1 2 1 1 1 2 3 3 1 1 0 3 4 5 4
12 11 10 10 9 8 8 6 6 4 3 5 7 5 5 6 5 4 4 2 2 2 3 1 1 1 2 0 1 2 2 2 2 0 0 2 3 1 1 1 3 4 5
13 11 11 10 9 9 8 8 8 7 6 6 6 6 5 5 5 5 4 3 1 2 3 1 3 1 1 2 1 1 1 2 1 1 2 1 1 2 2 1 1 0 2
14 13 12 11 10 9 8 8 7 6 6 6 7 8 6 4 4 5 5 3 1 2 3 3 3 3 3 3 3 2 1 0 2 2 1 1 2 1 2 1 1 1 0
14 13 13 12 10 9 8 8 6 6 7 8 8 8 6 5 4 5 5 3 2 3 3 3 2 2 2 4 4 4 3 2 3 2 3 2 2 1 0 1 1 1 1
Wind_Direction
126 130 133 134 134 134 130 125 120 115 111 105 100 96 92 89 88 86 85 86 86 86 85 83 81 80 80 79 80 82 86 91 93 96 95 93 91 92 97 104 100 97 101
126 131 133 134 135 135 132 128 124 120 116 110 105 101 97 94 91 89 87 87 88 87 86 85 83 83 82 82 83 87 92 99 104 107 105 97 90 89 91 94 96 104 105
124 131 133 133 134 134 133 130 127 124 120 115 110 106 102 99 95 93 91 90 90 90 89 88 86 84 84 84 85 89 95 103 113 122 121 105 97 92 94 97 102 105 106
128 136 134 134 133 134 133 131 129 127 124 119 115 111 107 103 99 96 94 93 92 91 91 91 88 85 83 83 83 85 89 100 120 141 126 108 102 98 99 102 105 106 106
131 131 133 136 134 134 134 133 131 130 127 123 119 115 111 107 103 99 97 97 96 93 93 92 89 87 84 81 78 70 56 42 69 124 105 97 97 105 104 105 106 106 107
131 131 135 137 136 135 134 133 132 130 128 125 122 119 115 111 108 104 102 101 100 97 94 93 91 87 83 78 69 47 11 338 319 113 109 106 106 110 110 109 109 109 109
132 131 137 138 137 136 136 135 134 132 130 129 127 124 119 116 113 110 107 105 104 101 98 96 93 88 83 74 54 16 347 330 302 106 102 103 111 115 114 113 114 113 114
130 133 137 139 139 138 138 136 135 134 134 133 131 130 125 123 121 117 114 111 108 106 103 100 96 91 85 73 39 355 338 331 46 110 108 110 119 120 118 116 117 119 120
129 131 139 142 142 141 140 139 139 139 138 138 137 137 134 133 132 127 122 118 115 113 111 108 104 99 94 81 15 332 326 330 345 113 114 118 124 125 124 123 124 124 125
129 135 142 145 146 147 145 145 145 146 146 146 146 146 146 147 146 142 138 129 126 123 121 121 122 123 130 158 271 300 313 322 357 104 114 126 130 130 131 130 131 131 132
130 134 142 145 152 153 152 149 150 151 154 154 157 161 165 171 162 159 142 138 136 135 135 140 149 171 198 216 238 265 290 293 75 96 115 133 135 136 138 140 140 141 141
135 139 142 147 156 158 152 149 158 159 160 170 163 173 188 178 154 145 140 144 147 150 155 167 187 219 235 228 229 243 266 289 117 116 131 140 139 142 147 150 151 152 152
144 142 136 145 155 150 139 154 156 147 155 171 157 176 183 142 133 132 144 147 160 169 175 169 201 233 231 337 259 248 327 13 85 112 137 142 144 148 155 162 165 166 166
147 141 138 140 136 129 136 148 143 143 161 156 153 174 142 110 104 118 135 156 167 162 150 146 174 341 7 357 340 346 359 19 60 108 139 150 155 158 164 172 178 180 179
144 140 138 142 141 124 113 141 141 135 151 138 144 152 144 142 126 114 105 132 142 129 136 145 149 83 347 333 325 359 347 18 25 103 145 161 164 166 172 179 187 191 189
151 146 140 141 136 130 130 138 124 130 128 128 134 139 145 134 124 129 142 134 120 124 128 155 139 137 281 315 324 340 332 345 356 83 143 165 174 177 182 189 194 197 197
155 144 140 140 140 142 145 154 135 134 136 126 124 127 125 127 135 150 147 159 143 146 152 153 147 161 204 271 312 303 267 304 342 8 132 163 182 192 193 195 198 201 203
149 145 152 152 145 140 134 137 137 134 131 128 130 126 121 125 149 161 150 143 159 162 147 143 136 132 118 289 271 273 273 206 223 229 229 198 193 195 198 203 205 206 208
143 146 150 141 144 142 137 136 117 106 120 128 125 123 130 137 145 130 104 96 149 123 94 97 88 75 288 294 264 235 260 229 193 241 225 221 210 198 198 207 209 210 211
139 142 144 138 141 141 136 126 120 121 125 114 113 120 133 135 125 116 114 109 122 94 81 76 81 179 243 260 295 267 238 237 210 210 252 237 203 209 208 203 204 216 219
143 149 148 144 143 142 144 146 145 148 141 129 127 132 134 126 126 105 104 119 90 94 94 92 67 239 227 42 318 292 240 205 193 183 204 282 210 192 182 185 204 215 213
151 151 148 148 149 149 146 141 145 139 148 132 118 134 141 138 142 135 110 141 104 113 116 122 79 319 296 99 318 311 285 141 277 189 170 186 131 47 313 223 203 210 220
159 160 158 151 149 146 143 136 133 126 135 124 134 146 145 145 140 104 111 87 93 126 112 94 15 358 356 342 61 6 357 25 338 138 144 129 137 160 228 240 219 206 212
159 158 149 147 147 144 148 151 156 163 160 148 149 142 145 147 140 130 118 98 75 91 113 178 101 358 343 328 102 103 90 71 347 346 312 102 163 198 197 273 11 260 240
159 155 150 147 145 147 153 157 166 160 149 142 134 136 148 144 148 141 130 119 112 90 88 59 66 21 357 2 359 9 28 177 241 255 296 318 272 201 154 144 131 119 208
159 156 152 149 149 155 161 159 169 158 148 142 143 149 165 157 163 150 141 135 126 101 94 82 63 66 43 30 3 354 355 353 352 343 333 313 313 335 101 107 161 148 181
Height
1503 1506 1510 1513 1515 1518 1521 1524 1526 1528 1530 1532 1533 1535 1536 1537 1538 1539 1540 1541 1542 1543 1544 1545 1545 1546 1547 1548 1548 1549 1550 1551 1552 1553 1554 1555 1556 1557 1558 1559 1561 1562 1563
1501 1506 1510 1513 1516 1519 1522 1525 1528 1530 1532 1534 1535 1537 1538 1539 1540 1541 1542 1543 1544 1545 1546 1547 1547 1548 1549 1550 1550 1551 1552 1553 1554 1555 1556 1557 1558 1559 1560 1561 1563 1564 1565
1502 1506 1510 1514 1517 1520 1524 1527 1529 1532 1534 1536 1537 1539 1540 1541 1543 1544 1545 1545 1546 1547 1548 1549 1549 1550 1551 1552 1553 1553 1554 1556 1557 1558 1559 1560 1561 1562 1563 1564 1565 1566 1568
1502 1507 1511 1515 1518 1522 1525 1528 1531 1533 1535 1537 1539 1541 1542 1543 1544 1546 1547 1547 1548 1549 1550 1551 1552 1552 1553 1554 1555 1556 1557 1558 1559 1560 1562 1563 1563 1564 1565 1566 1568 1569 1570
1504 1508 1511 1515 1519 1523 1526 1529 1532 1534 1537 1539 1541 1542 1544 1545 1546 1547 1548 1549 1550 1551 1552 1553 1554 1555 1556 1557 1558 1559 1560 1561 1562 1563 1564 1565 1566 1566 1567 1569 1570 1571 1572
1506 1508 1512 1516 1520 1524 1527 1530 1533 1536 1538 1540 1542 1544 1545 1546 1548 1549 1550 1551 1552 1553 1554 1555 1556 1557 1558 1559 1560 1561 1562 1563 1564 1565 1566 1567 1567 1568 1569 1570 1572 1573 1574
1506 1509 1513 1517 1521 1525 1528 1531 1534 1537 1539 1541 1543 1545 1546 1548 1549 1551 1552 1553 1554 1555 1556 1557 1558 1559 1560 1561 1562 1563 1564 1565 1566 1567 1567 1568 1569 1570 1571 1572 1573 1575 1576
1506 1509 1513 1518 1522 1525 1529 1532 1535 1538 1540 1542 1544 1546 1547 1549 1551 1552 1553 1554 1555 1556 1557 1558 1560 1561 1562 1563 1564 1565 1565 1566 1568 1568 1568 1569 1570 1571 1572 1573 1575 1576 1578
1506 1509 1513 1518 1522 1525 1529 1532 1535 1538 1541 1543 1545 1547 1549 1550 1552 1553 1554 1555 1556 1558 1559 1560 1561 1562 1563 1564 1565 1566 1567 1568 1569 1569 1569 1570 1571 1572 1573 1574 1576 1577 1579
1507 1510 1514 1518 1522 1525 1529 1533 1536 1539 1541 1544 1546 1548 1549 1551 1552 1554 1555 1556 1558 1559 1560 1561 1562 1563 1564 1566 1567 1568 1568 1569 1569 1569 1570 1571 1572 1573 1574 1575 1577 1578 1579
1508 1512 1516 1518 1522 1526 1529 1533 1536 1539 1542 1544 1546 1548 1550 1552 1553 1554 1556 1557 1558 1559 1561 1562 1563 1564 1565 1566 1567 1568 1569 1569 1569 1569 1570 1571 1572 1574 1575 1576 1578 1579 1580
1508 1513 1517 1520 1523 1527 1531 1533 1536 1539 1542 1544 1546 1549 1550 1553 1554 1555 1557 1558 1559 1560 1561 1562 1564 1565 1566 1567 1568 1569 1569 1570 1569 1569 1570 1572 1573 1574 1575 1577 1578 1579 1581
1509 1513 1516 1520 1524 1528 1531 1533 1536 1539 1542 1544 1546 1549 1551 1553 1555 1555 1557 1558 1559 1560 1561 1562 1563 1564 1566 1567 1568 1569 1569 1569 1569 1570 1571 1572 1574 1575 1576 1577 1578 1580 1581
1509 1512 1515 1519 1524 1528 1530 1534 1537 1539 1541 1544 1546 1548 1551 1553 1554 1555 1556 1558 1559 1560 1561 1563 1563 1564 1566 1566 1567 1568 1569 1568 1569 1569 1570 1572 1574 1575 1576 1577 1578 1580 1581
1508 1511 1515 1518 1523 1526 1529 1533 1536 1538 1541 1543 1545 1548 1550 1552 1553 1555 1556 1558 1559 1560 1561 1562 1563 1564 1565 1566 1566 1567 1568 1569 1569 1569 1570 1572 1573 1574 1575 1577 1578 1579 1581
1507 1511 1514 1518 1521 1524 1527 1531 1535 1538 1540 1542 1544 1546 1549 1550 1552 1554 1555 1557 1558 1559 1560 1561 1562 1563 1564 1565 1565 1566 1567 1568 1569 1569 1570 1571 1572 1573 1574 1576 1577 1578 1580
1507 1510 1513 1517 1520 1523 1527 1531 1534 1537 1539 1541 1543 1545 1547 1549 1551 1553 1554 1556 1557 1558 1559 1560 1561 1562 1563 1564 1564 1565 1566 1567 1567 1568 1569 1570 1571 1572 1573 1574 1576 1577 1578
1506 1509 1513 1517 1520 1523 1526 1530 1533 1536 1539 1541 1542 1544 1546 1548 1550 1552 1553 1555 1556 1557 1559 1560 1560 1561 1562 1562 1563 1563 1564 1565 1566 1567 1568 1569 1570 1571 1572 1572 1574 1575 1577
1505 1508 1513 1516 1519 1523 1526 1529 1533 1536 1538 1540 1542 1543 1545 1547 1549 1551 1552 1554 1555 1557 1558 1559 1559 1559 1560 1561 1562 1563 1563 1564 1565 1565 1566 1567 1568 1569 1570 1570 1572 1573 1574
1504 1507 1512 1515 1519 1522 1526 1529 1532 1535 1538 1540 1541 1543 1545 1547 1549 1550 1552 1553 1554 1555 1556 1557 1558 1559 1559 1560 1561 1561 1562 1562 1563 1564 1564 1566 1566 1567 1568 1568 1569 1570 1571
1504 1507 1511 1515 1518 1521 1525 1528 1531 1534 1537 1539 1541 1543 1545 1547 1548 1550 1551 1552 1553 1554 1555 1556 1557 1558 1559 1559 1560 1560 1560 1561 1561 1562 1563 1564 1565 1565 1566 1567 1567 1568 1569
1503 1507 1510 1513 1517 1520 1524 1527 1531 1534 1536 1539 1541 1543 1545 1546 1548 1550 1550 1551 1552 1553 1554 1555 1556 1557 1558 1559 1559 1559 1559 1561 1560 1561 1562 1562 1563 1564 1564 1565 1565 1566 1566
1502 1505 1508 1512 1516 1519 1523 1526 1530 1533 1536 1538 1540 1542 1544 1546 1547 1548 1549 1551 1552 1553 1553 1554 1555 1556 1557 1558 1559 1559 1559 1559 1560 1561 1561 1562 1562 1562 1563 1563 1564 1564 1564
1501 1504 1508 1512 1515 1518 1522 1525 1528 1532 1535 1537 1539 1541 1543 1545 1547 1548 1549 1550 1551 1552 1552 1554 1554 1555 1557 1558 1558 1559 1560 1560 1560 1561 1562 1561 1561 1561 1562 1562 1562 1562 1562
1501 1504 1507 1511 1514 1517 1521 1524 1528 1531 1534 1537 1539 1541 1543 1544 1546 1547 1548 1549 1550 1551 1551 1552 1553 1554 1555 1556 1557 1558 1559 1559 1560 1561 1561 1561 1561 1561 1560 1560 1560 1560 1560
1501 1504 1507 1510 1513 1517 1520 1524 1527 1530 1533 1535 1538 1540 1542 1543 1545 1546 1548 1548 1549 1550 1551 1551 1552 1553 1554 1555 1556 1557 1558 1559 1559 1559 1560 1559 1559 1560 1559 1559 1559 1559 1559